SCP
2 2 1 1 0 0 0 0 0 0 0 1 1 1 1 1 1 1 0 0 0 0 0 0 0 0 0 0 0 0 0 0 0 0 0 0 0 0 0 0 0 0 0
2 1 1 1 1 0 0 0 0 0 0 0 1 1 1 1 1 1 0 0 0 0 0 0 0 0 0 0 0 0 0 0 0 0 0 0 0 0 0 0 0 0 0
1 1 1 1 1 1 1 1 1 1 1 1 1 1 1 1 1 1 1 1 1 1 0 0 0 0 0 0 0 0 0 0 0 0 0 0 0 0 0 0 0 0 0
1 1 1 1 1 1 1 1 1 1 1 1 1 1 1 1 1 1 1 1 1 1 1 1 1 1 0 0 0 0 0 0 0 0 0 0 0 0 0 0 0 0 0
1 1 1 2 2 2 2 1 1 1 1 1 1 1 2 2 1 1 1 1 1 1 1 1 1 1 1 0 0 0 0 0 0 0 0 0 0 0 0 0 0 0 0
1 1 2 2 2 2 2 2 1 1 1 2 2 2 2 2 1 1 1 1 1 1 1 1 1 1 1 1 0 0 0 0 0 0 0 0 0 0 0 0 0 0 0
1 1 2 2 2 2 2 2 2 2 2 2 2 2 2 2 1 1 0 0 1 1 1 1 1 1 1 1 0 0 0 0 0 0 0 0 0 0 0 0 0 0 0
1 1 2 2 2 1 2 2 2 2 2 2 2 2 2 1 1 0 0 0 0 0 0 0 0 0 0 0 0 0 0 0 0 0 0 0 0 0 0 0 0 0 0
1 1 1 1 1 1 1 2 2 2 1 1 1 1 1 1 0 0 0 0 0 0 0 0 0 0 0 0 0 0 0 0 0 0 0 0 0 0 0 0 0 0 0
1 1 1 1 1 1 1 1 1 1 1 1 0 0 0 0 0 0 0 0 0 0 0 0 0 0 0 0 0 0 0 0 0 0 0 0 0 0 0 0 0 0 0
1 1 1 0 0 0 0 1 1 1 1 1 1 1 1 0 0 0 0 0 0 0 0 0 0 0 0 0 0 0 0 0 0 0 0 0 0 0 0 0 0 0 0
1 1 1 1 0 0 0 0 1 1 1 1 1 1 1 1 0 0 0 0 0 0 0 0 0 0 0 0 0 0 0 0 0 0 0 0 0 0 0 0 0 0 0
1 1 1 1 0 0 0 0 0 1 1 1 1 1 1 1 1 0 0 0 0 0 0 0 0 0 0 0 0 0 0 0 0 0 0 0 0 0 0 0 0 0 0
1 1 1 1 0 0 0 0 0 0 0 0 1 1 1 1 0 0 0 0 0 0 0 0 0 0 0 0 0 0 0 0 0 0 0 0 0 0 0 0 0 0 0
1 1 1 0 0 0 0 0 0 0 0 0 0 0 1 0 0 0 0 0 0 0 0 0 0 0 0 0 0 0 0 0 0 0 0 0 0 0 0 0 0 0 0
0 0 0 0 0 0 0 0 0 0 0 0 0 0 0 0 0 0 0 0 0 0 0 0 0 0 0 0 0 0 0 0 0 0 0 0 0 0 0 0 0 0 0
0 0 0 0 0 0 0 0 0 0 0 0 0 0 0 0 0 0 0 0 0 0 0 0 0 0 0 0 0 0 0 0 0 0 0 0 0 0 0 0 0 0 0
0 0 0 0 0 0 0 0 0 0 0 0 0 0 0 0 0 0 0 0 0 0 0 0 0 0 0 0 0 0 0 0 0 0 0 0 0 0 0 0 0 0 0
0 0 0 0 0 0 0 0 0 0 0 0 0 0 0 0 0 0 0 0 0 0 0 0 0 0 0 0 0 0 0 0 0 0 0 0 0 0 0 0 0 0 0
0 0 0 0 0 0 0 0 0 0 0 0 0 0 0 0 0 0 0 0 0 0 0 0 0 0 0 0 0 0 0 0 0 0 0 0 0 0 0 0 0 0 0
0 0 0 0 0 0 0 0 0 0 0 0 0 0 0 0 0 0 0 0 0 0 0 0 0 0 0 0 0 0 0 0 0 0 0 0 0 0 0 0 0 0 0
0 0 0 0 0 0 0 0 0 0 0 0 0 0 0 0 0 0 0 0 0 0 0 0 0 0 0 0 0 0 0 0 0 0 0 0 0 0 0 0 0 0 0
0 0 0 0 0 0 0 0 0 0 0 0 0 0 0 0 0 0 0 0 0 0 0 0 0 0 0 0 0 0 0 0 0 0 0 0 0 0 0 0 0 0 0
0 0 0 0 0 0 0 0 0 0 0 0 0 0 0 0 0 0 0 0 0 0 0 0 0 0 0 0 0 0 0 0 0 0 0 0 0 0 0 0 0 0 0
0 0 0 0 0 0 0 0 0 0 0 0 0 0 0 0 0 0 0 0 0 0 0 0 0 0 0 0 0 0 0 0 0 0 0 0 0 0 0 0 0 0 0
0 0 0 0 0 0 0 0 0 0 0 0 0 0 0 0 0 0 0 0 0 0 0 0 0 0 0 0 0 0 0 0 0 0 0 0 0 0 0 0 0 0 0
Wind_Speed
5 5 5 4 5 5 5 5 5 5 5 6 6 5 5 5 5 5 4 5 5 4 4 4 4 3 2 2 2 2 2 3 3 1 1 1 2 3 2 2 2 2 2
4 4 4 4 4 5 4 4 5 5 5 5 4 4 5 5 5 6 6 5 5 5 4 4 3 3 3 2 2 2 2 2 4 3 1 2 2 2 3 3 2 2 2
5 4 4 4 4 4 4 4 4 4 4 4 4 4 4 4 5 5 5 4 4 4 5 5 4 4 3 2 2 2 2 2 3 4 2 1 2 2 3 3 3 2 3
5 5 4 4 4 4 4 3 3 4 4 4 4 4 4 4 4 5 5 5 4 3 3 4 4 4 4 3 2 2 3 3 4 4 3 2 2 2 3 2 2 3 2
5 4 4 3 3 3 3 3 3 3 3 3 3 3 3 3 4 5 6 5 5 4 4 4 4 6 6 4 3 3 4 4 4 4 3 2 2 3 2 1 2 1 2
5 4 3 4 4 4 3 3 3 3 2 3 3 3 3 3 4 7 7 6 5 6 5 5 5 7 9 10 10 8 6 6 5 4 3 3 2 1 1 2 1 2 2
4 4 4 4 4 3 4 3 3 3 3 3 3 3 4 4 6 8 9 7 6 6 6 5 5 6 7 7 11 13 12 12 9 6 6 4 3 1 2 3 3 3 1
4 4 4 4 4 4 4 4 3 3 3 4 4 4 5 5 8 10 12 9 7 7 6 6 7 6 6 8 9 9 9 8 8 7 7 5 4 2 3 3 2 3 2
5 4 4 4 4 4 4 4 3 4 5 4 5 6 6 6 8 10 10 8 8 8 7 7 7 7 9 11 11 10 10 8 11 13 12 10 10 9 6 4 4 4 3
4 4 4 4 5 5 4 4 4 5 6 6 7 6 7 7 9 11 10 7 9 7 7 7 10 10 10 10 9 9 9 6 6 7 8 8 7 8 9 5 3 3 2
5 5 5 4 4 5 5 4 5 6 7 7 8 6 6 7 9 10 10 7 7 8 6 5 6 12 12 12 10 7 8 6 6 6 5 4 4 4 4 4 3 3 3
6 6 6 5 5 5 6 6 6 7 8 7 7 7 5 5 7 9 11 10 9 9 7 6 7 13 13 13 10 10 11 8 5 5 5 4 3 3 3 3 3 3 2
7 7 6 6 6 5 6 7 6 6 6 5 5 6 5 4 6 10 12 12 12 8 7 11 12 13 12 10 12 12 9 6 5 5 4 2 1 1 2 3 4 4 4
8 7 6 6 6 6 5 5 5 5 5 5 5 6 5 4 4 4 5 7 11 10 8 10 12 12 9 9 8 6 5 4 4 4 3 2 2 3 3 2 2 2 3
8 7 6 6 7 7 7 6 5 3 3 5 5 5 6 6 4 7 7 6 6 6 8 6 5 5 5 4 4 4 4 4 4 3 3 3 3 3 3 2 2 2 2
7 6 5 5 6 6 7 8 13 10 11 10 8 7 6 8 11 12 12 12 11 11 8 6 5 4 4 4 4 3 3 3 3 3 3 3 2 2 2 2 2 2 2
7 6 5 5 6 6 6 7 7 9 13 13 11 11 11 12 13 13 12 12 11 10 7 5 5 4 3 3 3 3 2 2 3 3 3 2 2 2 2 2 2 2 2
7 7 6 5 5 6 6 6 6 7 7 6 7 10 12 12 13 12 12 11 7 5 4 5 4 3 3 3 3 3 3 3 3 3 3 2 2 2 2 2 2 2 2
6 5 5 5 6 6 6 6 6 7 6 6 5 6 8 10 10 9 8 6 6 4 4 4 3 3 3 4 4 3 3 3 3 2 2 2 2 2 2 2 2 3 2
5 10 8 6 6 6 6 6 6 6 6 5 5 5 4 5 5 4 4 4 4 4 4 4 3 4 4 4 3 3 3 3 3 3 2 2 2 2 1 2 2 2 2
5 7 10 7 5 6 6 6 6 6 6 5 4 4 6 5 4 4 4 3 4 4 4 4 4 4 4 3 4 4 4 3 2 2 2 1 2 1 1 1 2 2 2
5 4 5 5 5 6 6 6 6 6 6 6 4 5 6 4 4 3 3 3 3 3 4 4 4 4 4 4 5 4 4 3 2 1 1 1 1 1 2 2 2 3 3
5 6 6 6 6 8 7 6 6 6 5 5 5 4 4 3 4 4 3 3 3 3 4 4 5 4 3 3 4 4 4 3 2 2 2 1 1 2 2 2 3 3 4
6 7 7 6 5 5 5 5 5 5 5 5 4 4 4 4 4 4 4 3 4 4 4 4 5 6 7 4 3 3 3 3 3 2 2 1 0 1 2 2 3 4 4
5 5 5 5 5 5 5 5 5 5 5 5 5 5 5 4 4 4 4 4 5 5 5 5 4 5 7 7 6 4 5 5 3 2 2 1 0 2 2 3 3 4 4
5 5 5 5 5 5 5 5 5 5 5 5 5 5 5 5 4 4 4 4 4 4 5 4 6 7 7 6 7 7 6 4 3 2 2 1 1 2 3 3 4 4 5
Wind_Direction
163 168 167 173 174 171 177 182 182 182 178 179 186 188 187 189 184 179 185 179 180 187 186 180 191 182 159 147 133 129 130 133 147 163 40 27 62 81 75 83 90 98 122
154 146 151 155 160 169 177 179 174 175 178 181 182 184 188 187 182 179 188 183 182 186 186 174 184 177 160 153 138 128 133 135 142 148 73 42 48 74 83 83 69 75 88
141 139 141 150 159 170 173 168 169 173 177 178 175 184 186 181 178 177 175 171 178 183 177 170 172 155 157 145 134 141 140 123 122 131 124 60 46 55 67 62 56 37 59
141 144 150 160 165 166 156 153 161 166 168 174 178 178 173 170 167 158 153 153 154 157 158 153 154 149 154 146 135 144 129 111 108 113 108 75 51 35 70 65 42 24 34
139 145 160 161 145 137 137 141 137 145 164 163 153 152 156 160 165 150 147 148 144 132 118 116 121 118 117 118 121 126 123 117 111 108 102 81 54 50 50 41 69 37 32
138 143 142 138 134 132 134 137 132 130 131 134 138 141 146 157 146 147 143 134 130 125 116 104 97 94 95 93 94 95 110 122 122 114 106 104 92 65 42 63 72 65 23
133 131 126 126 123 125 133 128 134 142 133 125 131 133 129 129 135 136 132 126 121 120 122 117 106 94 91 92 83 75 72 80 96 117 113 114 113 110 91 69 61 71 52
121 120 123 126 127 122 116 121 127 123 120 116 112 115 112 109 117 118 113 107 100 94 93 99 102 98 100 105 96 83 72 66 77 84 96 92 92 87 89 103 103 88 50
126 126 130 133 128 124 125 123 116 111 105 100 98 100 103 99 104 112 112 108 99 90 85 88 100 100 102 107 104 99 88 77 77 83 84 81 77 71 71 72 60 67 43
132 131 123 123 128 127 127 119 111 110 105 99 90 87 96 98 98 108 112 111 106 98 84 78 84 97 102 106 105 106 102 94 87 79 68 59 56 51 54 68 90 90 84
125 117 109 107 113 116 112 106 109 108 104 98 92 82 82 89 93 98 106 113 117 111 100 87 84 95 96 94 94 98 105 103 89 85 78 66 55 46 40 45 64 103 106
118 113 107 102 102 105 109 104 105 110 108 104 101 92 78 80 88 95 97 102 110 110 108 102 97 96 93 90 88 91 91 88 85 79 75 63 52 39 27 32 42 55 98
112 110 106 100 94 100 111 112 109 108 112 113 112 107 97 87 85 88 94 99 101 101 103 105 101 95 88 83 85 86 85 84 87 85 78 62 41 34 36 33 28 30 25
113 110 107 106 97 88 92 99 108 115 119 122 123 121 116 107 102 99 98 98 96 97 100 98 92 85 82 83 81 76 78 86 94 96 93 61 35 37 36 37 41 24 24
113 112 107 103 105 94 84 73 84 78 120 135 133 134 134 128 124 120 119 111 113 116 113 97 88 86 81 73 69 66 67 72 73 70 72 60 45 39 25 25 46 45 38
117 116 116 117 113 108 104 83 61 71 76 84 100 114 105 115 119 112 109 109 110 117 108 106 106 105 104 100 96 80 68 75 77 75 67 63 60 51 32 21 33 41 22
123 124 121 122 122 120 118 115 104 74 69 74 84 98 110 116 114 113 111 107 106 109 102 107 109 112 112 111 106 102 92 81 81 79 72 62 60 54 49 34 24 21 4
117 120 122 122 122 122 121 119 119 118 109 82 69 87 102 108 110 111 111 105 95 86 101 112 116 117 113 110 108 103 93 81 74 74 68 60 59 61 48 31 20 7 346
119 122 121 121 118 117 117 116 115 114 114 112 104 87 92 97 94 99 107 108 118 113 110 111 115 115 113 114 113 105 98 92 86 79 67 56 53 58 42 20 8 359 1
117 126 126 125 122 121 121 122 121 121 120 122 125 126 119 107 107 108 105 111 116 118 119 121 120 120 119 117 113 108 98 92 86 78 65 48 42 54 41 13 0 349 334
121 128 128 124 127 132 132 131 129 128 128 129 132 135 135 126 128 127 123 122 129 136 137 133 128 125 123 119 116 115 112 105 100 91 73 45 35 28 6 358 342 337 330
117 119 123 123 124 127 127 127 127 128 130 130 126 123 127 116 126 132 135 141 145 145 142 134 129 131 137 136 133 127 123 121 116 103 81 48 27 9 358 348 337 329 327
122 123 120 118 119 127 127 127 130 132 133 134 135 134 136 136 139 141 143 143 138 135 132 129 128 130 130 131 137 141 146 158 167 154 129 70 18 357 343 326 320 320 318
127 129 129 129 130 133 135 137 139 141 142 145 146 147 148 148 148 150 151 147 140 138 138 139 144 150 148 142 139 143 152 159 154 148 141 136 10 330 324 314 308 306 307
127 128 130 136 140 140 140 142 144 147 150 153 153 153 152 152 154 156 155 150 146 147 151 150 151 155 160 162 164 165 164 160 156 151 141 143 290 305 305 300 302 306 304
136 137 137 139 143 144 146 148 152 153 155 158 159 163 164 164 164 162 159 156 155 158 160 162 168 168 170 173 175 174 175 178 180 177 165 177 263 289 300 294 301 301 302